• In Netherlands
  • List of Countries
  • For 7 days
  • Water Temperature
  • Satellite Maps
  • Weather Map
  • Weather Widgets
  • user-avatar
    Login

    Hourly Weather Kalat

    Today, 23 March, Thursday

    Time Temperature Precipitation Wind Pressure Humidity
    00:00 -6°C° 0.2 mm 1 mps 471 mmHg 91%
    01:00 -7°C° 0.2 mm 1 mps 471 mmHg 91%
    02:00 -7°C° 0.2 mm 1 mps 471 mmHg 91%
    03:00 -8°C° 0.2 mm 1 mps 470 mmHg 93%
    04:00 -9°C° 0.2 mm 1 mps 469 mmHg 94%
    05:00 -9°C° 0 mm 1 mps 470 mmHg 94%
    06:00 -9°C° 0.2 mm 2 mps 471 mmHg 91%
    07:00 -8°C° 0.2 mm 2 mps 472 mmHg 89%
    08:00 -7°C° 0.2 mm 2 mps 474 mmHg 87%
    09:00 -6°C° 0.1 mm 2 mps 474 mmHg 85%
    10:00 -5°C° 0.1 mm 2 mps 475 mmHg 84%
    11:00 -4°C° 0 mm 2 mps 476 mmHg 85%
    12:00 -3°C° 0.1 mm 2 mps 476 mmHg 82%
    13:00 -3°C° 0.1 mm 2 mps 476 mmHg 80%
    14:00 -3°C° 0.1 mm 2 mps 476 mmHg 77%
    15:00 -3°C° 0.1 mm 2 mps 476 mmHg 74%
    16:00 -3°C° 0.1 mm 2 mps 476 mmHg 71%
    17:00 -3°C° 0 mm 2 mps 475 mmHg 71%
    18:00 -4°C° 0 mm 1 mps 473 mmHg 77%
    19:00 -8°C° 0 mm 1 mps 470 mmHg 83%
    20:00 -11°C° 0 mm 1 mps 468 mmHg 89%
    21:00 -11°C° 0 mm 1 mps 468 mmHg 87%
    22:00 -11°C° 0 mm 1 mps 468 mmHg 84%
    23:00 -13°C° 0 mm 2 mps 469 mmHg 82%

    Tomorrow, 24 March, Friday

    Time Temperature Precipitation Wind Pressure Humidity
    00:00 -13°C° 0 mm 2 mps 469 mmHg 82%
    01:00 -13°C° 0 mm 2 mps 469 mmHg 81%
    02:00 -13°C° 0 mm 2 mps 469 mmHg 81%
    03:00 -13°C° 0 mm 2 mps 469 mmHg 80%
    04:00 -13°C° 0 mm 2 mps 468 mmHg 80%
    05:00 -13°C° 0 mm 2 mps 468 mmHg 79%
    06:00 -10°C° 0 mm 2 mps 470 mmHg 74%
    07:00 -7°C° 0 mm 2 mps 473 mmHg 69%
    08:00 -6°C° 0 mm 3 mps 475 mmHg 64%
    09:00 -5°C° 0 mm 3 mps 475 mmHg 62%
    10:00 -2°C° 0 mm 3 mps 476 mmHg 60%
    11:00 -1°C° 0 mm 3 mps 477 mmHg 59%
    12:00 0°C° 0 mm 3 mps 477 mmHg 60%
    13:00 0°C° 0 mm 3 mps 477 mmHg 61%
    14:00 0°C° 0 mm 3 mps 477 mmHg 63%
    15:00 0°C° 0 mm 3 mps 477 mmHg 62%
    16:00 0°C° 0 mm 3 mps 477 mmHg 62%
    17:00 0°C° 0 mm 3 mps 476 mmHg 62%
    18:00 -2°C° 0 mm 2 mps 475 mmHg 65%
    19:00 -4°C° 0 mm 2 mps 475 mmHg 68%
    20:00 -5°C° 0 mm 2 mps 474 mmHg 71%
    21:00 -5°C° 0 mm 2 mps 474 mmHg 70%
    22:00 -6°C° 0 mm 2 mps 474 mmHg 70%
    23:00 -6°C° 0 mm 2 mps 474 mmHg 69%

    Day after tomorrow, 25 March, Saturday

    Time Temperature Precipitation Wind Pressure Humidity
    00:00 -6°C° 0.1 mm 2 mps 474 mmHg 70%
    01:00 -6°C° 0.1 mm 2 mps 474 mmHg 71%
    02:00 -6°C° 0.1 mm 2 mps 474 mmHg 72%
    03:00 -6°C° 0.1 mm 2 mps 474 mmHg 73%
    04:00 -6°C° 0.1 mm 2 mps 473 mmHg 75%
    05:00 -6°C° 0.1 mm 2 mps 473 mmHg 76%
    06:00 -5°C° 0.2 mm 2 mps 474 mmHg 76%
    07:00 -5°C° 0.2 mm 2 mps 474 mmHg 76%
    08:00 -4°C° 0.2 mm 2 mps 475 mmHg 76%
    09:00 -4°C° 0.3 mm 3 mps 476 mmHg 77%
    10:00 -2°C° 0.3 mm 3 mps 476 mmHg 77%
    11:00 -1°C° 0.3 mm 3 mps 477 mmHg 77%
    12:00 -1°C° 0.4 mm 3 mps 477 mmHg 77%
    13:00 -1°C° 0.4 mm 3 mps 476 mmHg 78%
    14:00 -1°C° 0.4 mm 3 mps 476 mmHg 78%
    15:00 -1°C° 0.3 mm 3 mps 476 mmHg 77%
    16:00 -1°C° 0.3 mm 2 mps 476 mmHg 76%
    17:00 -1°C° 0.3 mm 2 mps 476 mmHg 76%
    18:00 -2°C° 0.1 mm 2 mps 476 mmHg 79%
    19:00 -4°C° 0.1 mm 2 mps 475 mmHg 81%
    20:00 -3°C° 0.1 mm 1 mps 474 mmHg 84%
    21:00 -5°C° 0 mm 2 mps 474 mmHg 84%
    22:00 -6°C° 0 mm 2 mps 474 mmHg 83%
    23:00 -6°C° 0 mm 2 mps 473 mmHg 82%

    26 March, Sunday

    Time Temperature Precipitation Wind Pressure Humidity
    00:00 -6°C° 0 mm 2 mps 473 mmHg 82%
    01:00 -7°C° 0 mm 2 mps 473 mmHg 81%
    02:00 -8°C° 0 mm 3 mps 473 mmHg 81%
    03:00 -7°C° 0 mm 2 mps 472 mmHg 79%
    04:00 -7°C° 0 mm 2 mps 472 mmHg 76%
    05:00 -7°C° 0 mm 2 mps 472 mmHg 74%
    06:00 -6°C° 0 mm 2 mps 473 mmHg 71%
    07:00 -5°C° 0 mm 3 mps 475 mmHg 68%
    08:00 -2°C° 0 mm 3 mps 476 mmHg 65%
    09:00 -1°C° 0 mm 3 mps 477 mmHg 66%
    10:00 -1°C° 0 mm 4 mps 478 mmHg 66%
    11:00 0°C° 0 mm 4 mps 478 mmHg 66%
    12:00 0°C° 0.3 mm 4 mps 478 mmHg 69%
    13:00 0°C° 0.3 mm 4 mps 478 mmHg 72%
    14:00 0°C° 0.3 mm 4 mps 477 mmHg 75%
    15:00 -1°C° 0.5 mm 4 mps 477 mmHg 76%
    16:00 -1°C° 0.5 mm 4 mps 477 mmHg 78%
    17:00 0°C° 0.5 mm 3 mps 477 mmHg 80%
    18:00 -1°C° 0.4 mm 3 mps 477 mmHg 82%
    19:00 -2°C° 0.4 mm 3 mps 477 mmHg 85%
    20:00 -2°C° 0.4 mm 2 mps 477 mmHg 87%
    21:00 -2°C° 0.6 mm 2 mps 477 mmHg 88%
    22:00 -2°C° 0.6 mm 2 mps 477 mmHg 88%
    23:00 -2°C° 0.6 mm 2 mps 477 mmHg 89%

    27 March, Monday

    Time Temperature Precipitation Wind Pressure Humidity
    00:00 -2°C° 0.7 mm 2 mps 477 mmHg 89%
    01:00 -2°C° 0.7 mm 2 mps 477 mmHg 90%
    02:00 -1°C° 0.7 mm 1 mps 476 mmHg 91%
    03:00 -1°C° 0.6 mm 1 mps 476 mmHg 91%
    04:00 -1°C° 0.6 mm 1 mps 476 mmHg 91%
    05:00 -1°C° 0.6 mm 1 mps 476 mmHg 91%
    06:00 -1°C° 0.2 mm 1 mps 476 mmHg 88%
    07:00 0°C° 0.2 mm 1 mps 477 mmHg 86%
    08:00 +1°C° 0.2 mm 1 mps 478 mmHg 83%
    09:00 +1°C° 0.1 mm 1 mps 478 mmHg 82%
    10:00 +1°C° 0.1 mm 2 mps 479 mmHg 82%
    11:00 +2°C° 0.1 mm 2 mps 479 mmHg 81%
    12:00 +2°C° 0.2 mm 2 mps 479 mmHg 80%
    13:00 +2°C° 0.2 mm 2 mps 479 mmHg 79%
    14:00 +2°C° 0.2 mm 3 mps 479 mmHg 78%
    15:00 +2°C° 0.3 mm 2 mps 479 mmHg 77%
    16:00 +2°C° 0.3 mm 2 mps 478 mmHg 75%
    17:00 +2°C° 0.3 mm 2 mps 478 mmHg 73%
    18:00 +1°C° 0.1 mm 2 mps 478 mmHg 77%
    19:00 -1°C° 0.1 mm 2 mps 477 mmHg 80%
    20:00 -2°C° 0.1 mm 2 mps 477 mmHg 84%
    21:00 -2°C° 0.1 mm 2 mps 477 mmHg 83%
    22:00 -2°C° 0.1 mm 3 mps 477 mmHg 83%
    23:00 -2°C° 0.1 mm 3 mps 477 mmHg 83%

    28 March, Tuesday

    Time Temperature Precipitation Wind Pressure Humidity
    00:00 -2°C° 0.2 mm 3 mps 476 mmHg 83%
    01:00 -2°C° 0.2 mm 3 mps 476 mmHg 83%
    02:00 -2°C° 0.2 mm 3 mps 476 mmHg 83%
    03:00 -2°C° 0.3 mm 3 mps 476 mmHg 83%
    04:00 -2°C° 0.3 mm 3 mps 476 mmHg 83%
    05:00 -2°C° 0.3 mm 3 mps 476 mmHg 83%
    06:00 -1°C° 0.3 mm 3 mps 476 mmHg 82%
    07:00 -2°C° 0.3 mm 4 mps 477 mmHg 81%
    08:00 -1°C° 0.3 mm 4 mps 477 mmHg 80%
    09:00 -1°C° 0.6 mm 4 mps 477 mmHg 80%
    10:00 0°C° 0.6 mm 5 mps 477 mmHg 80%
    11:00 0°C° 0.6 mm 5 mps 477 mmHg 79%
    12:00 0°C° 0.7 mm 5 mps 477 mmHg 80%
    13:00 0°C° 0.7 mm 5 mps 477 mmHg 80%
    14:00 0°C° 0.7 mm 5 mps 477 mmHg 81%
    15:00 0°C° 0.9 mm 4 mps 477 mmHg 82%
    16:00 0°C° 0.9 mm 4 mps 477 mmHg 83%
    17:00 0°C° 0.9 mm 4 mps 477 mmHg 84%
    18:00 -1°C° 0.9 mm 4 mps 477 mmHg 86%
    19:00 -1°C° 0.9 mm 4 mps 477 mmHg 88%
    20:00 -2°C° 0.9 mm 4 mps 476 mmHg 89%
    21:00 -1°C° 1.4 mm 3 mps 476 mmHg 90%
    22:00 -1°C° 1.4 mm 3 mps 476 mmHg 91%
    23:00 -2°C° 1.4 mm 3 mps 476 mmHg 92%
    Show more